Location: Huntsville
(41.2590°N, 111.7678°W)
Time: 20:44:46
(UTC+00:00)

Explorer 7 - Pass Details

Date: 14 June 2021
Orbit: 484 x 676 km, 50.3° (Epoch: 30 July)

Event Time Altitude Azimuth Distance (km) Brightness Sun altitude
Rises 09:10:43 0° 286° (WNW) 2,970 10.5 -21.2°
Reaches altitude 10° 09:13:26 10° 299° (WNW) 2,032 9.7 -20.9°
Maximum altitude 09:17:21 26° 356° (N) 1,233 9.2 -20.6°
Drops below altitude 10° 09:21:06 10° 54° (NE) 1,935 10.5 -20.3°
Sets 09:23:38 0° 67° (ENE) 2,798 11.2 -20.1°
